Location: Unspecified
(0.0000°N, 0.0000°E)
Time: 14:30:52
(UTC+00:00)

Envisat - Pass Details

Date: 20 April 2018
Orbit: 764 x 766 km, 98.2° (Epoch: 16 November)

Event Time Altitude Azimuth Distance (km) Brightness Sun altitude
Exits shadow 19:37:06 43° 40° (NE) 1,064 3.5 -24.0°
Drops below altitude 10° 19:40:56 10° 3° (N) 2,290 5.6 -24.9°
Sets 19:43:17 0° 358° (N) 3,213 6.4 -25.5°
